CZ-4B DEB, 39052

Orbit data source: Space-Track

CZ-4B DEB, 39052 is space debris in SSO originally from a launch on Thu, 14 Oct 1999 UTC launched from the Taiyaun Space Center, China (TSC). Debris objects in space refer to the collection of defunct objects orbiting the Earth. Examples of debris include non-operational satellites, rocket bodies, and fragments generated from explosions, collisions, or faulty payload assembly.

Loading next visibility...
Identifier
39052, 1999-057SZ
Orbit
SSO
Country
Flag of CNCN / PRC
Related business
Manufacturer
Unknown
Mission
Spacecraft
Bus & Motor
Unknown
Mass
Unknown
Launch date (UTC)
1999-10-14 (26 years ago)
Launch vehicle
Unknown
Launch site
Taiyaun Space Center, China (TSC)
Object type
Payload
Rocket body
Debris
Shape & HBR
Unknown shape, 0.1 m
Radar Cross Section
Small (<0.1 m²)

Expand to show TLE details & history
Last TLE update: 1 day ago

TLE from 1 day ago
0 CZ-4B DEB
1 39052U 99057SZ  25296.26652616  .00002003  00000-0  18392-3 0  9998
2 39052  98.7562 300.0346 0058819  82.7060 278.0838 14.94949143703394
Epoch: 2025-10-23T06:23Z
TLE epoch observation values (Epoch: 2025-10-23T06:23:47.860Z)
Latitude
-0°
Longitude
172.15694°
Altitude
580.023 km
Speed
7.574 km/s
True Right ascension
20h 00m 08s
True Declination
0° 00' 00"
Sunlit
Object was in daylight at epoch
Visualization orbit readout
Latitude
Unknown
Longitude
Unknown
Altitude
Unknown
Speed
Unknown
Apparent Right ascension
Unknown
Apparent Declination
Unknown
Sunlit
N/A
Visualization observer readout
Local Sidereal Time
09:05:17
Azimuth
Unknown
Elevation
Unknown
Doppler factor
Unknown
Orbital elements
Apogee altitude
620.517 km
Perigee altitude
538.667 km
Semi-major axis
6,957.729 km
Eccentricity
0.00588
Inclination
98.7562°
RAAN
300.0346°
Arg. of periapsis
82.706°
True anomaly
277.41581°
Mean anomaly
278.0838°
Eccentric anomaly
277.74987°
Mean motion
3.73974 °/min
Orbital period
96.26 mins
BSTAR
0.00018392
Loading maneuver chart data...
Computing Atmospheric mass density...
Loading historical data...
Loading historical data...
Loading historical data...
Loading historical data...
Loading historical data...
Loading historical data...
Loading historical data...

Documentation

Showing up to 5 results
|